Voltar ao catálogo

THORAD DELTA 1 DEB

AtivoSSO
NORAD 42597·DEBRIS·🇺🇸 United States

Lançado Nov 15, 1974 de Vandenberg Space Force Base

Loading…

Próximas Passagens (próximas 24 horas)

TLE

AtualizadoSource: Space-Track

Época: Sep 11, 2026, 17:35 UTC

1 42597U 74089FN  26254.73270797  .00000144  00000-0  89804-3 0  9997
2 42597 101.5574 243.5754 0189645 239.3217 118.9054 12.69708114593376

Acompanhe THORAD DELTA 1 DEB em tempo real com AllMySat

Download on the App Store